Time,TemperatureF,DewpointF,PressureIn,WindDirection,WindDirectionDegrees,WindSpeedMPH,WindSpeedGustMPH,Humidity,HourlyPrecipIn,Conditions,Clouds,dailyrainin,SolarRadiationWatts/m^2,SoftwareType,DateUTC
2013-07-26 00:07:00,75.6,74.0,30.01,WSW,246,0.0,1.0,94,0.00,,,0.00,0,weatherlink.com 1.10,2013-07-26 04:07:00,
2013-07-26 00:22:00,75.8,74.0,30.01,SW,227,0.0,3.0,94,0.00,,,0.00,0,weatherlink.com 1.10,2013-07-26 04:22:00,
2013-07-26 00:37:00,76.1,74.0,30.01,WSW,242,1.0,3.0,94,0.00,,,0.00,0,weatherlink.com 1.10,2013-07-26 04:37:00,
2013-07-26 00:52:00,76.6,75.0,30.02,WSW,256,0.0,3.0,93,0.00,,,0.00,0,weatherlink.com 1.10,2013-07-26 04:52:00,
2013-07-26 01:29:00,74.9,73.0,30.01,WNW,296,0.0,5.0,94,0.21,,,0.21,0,weatherlink.com 1.10,2013-07-26 05:29:00,
2013-07-26 01:37:00,74.4,73.0,30.00,WNW,302,0.0,2.0,94,0.22,,,0.22,0,weatherlink.com 1.10,2013-07-26 05:37:00,
2013-07-26 01:56:00,74.1,73.0,30.00,WNW,302,0.0,2.0,96,0.22,,,0.22,0,weatherlink.com 1.10,2013-07-26 05:56:00,
2013-07-26 02:23:00,73.7,73.0,29.99,WSW,253,0.0,1.0,96,0.14,,,0.22,0,weatherlink.com 1.10,2013-07-26 06:23:00,
2013-07-26 02:38:00,73.7,73.0,29.99,WSW,252,0.0,3.0,97,0.00,,,0.22,0,weatherlink.com 1.10,2013-07-26 06:38:00,
2013-07-26 02:54:00,73.8,73.0,29.98,WSW,252,0.0,1.0,97,0.01,,,0.23,0,weatherlink.com 1.10,2013-07-26 06:54:00,
2013-07-26 03:09:00,73.9,73.0,29.98,WSW,252,1.0,2.0,97,0.01,,,0.23,0,weatherlink.com 1.10,2013-07-26 07:09:00,
2013-07-26 03:24:00,74.0,73.0,29.97,SW,225,0.0,2.0,97,0.01,,,0.23,0,weatherlink.com 1.10,2013-07-26 07:24:00,
2013-07-26 03:57:00,73.9,73.0,29.97,SW,227,0.0,3.0,97,0.00,,,0.23,0,weatherlink.com 1.10,2013-07-26 07:57:00,
2013-07-26 04:11:00,73.9,73.0,29.98,SW,227,0.0,1.0,97,0.00,,,0.23,0,weatherlink.com 1.10,2013-07-26 08:11:00,
2013-07-26 04:25:00,73.8,73.0,29.98,SW,227,0.0,2.0,97,0.00,,,0.23,0,weatherlink.com 1.10,2013-07-26 08:25:00,
2013-07-26 04:41:00,73.7,73.0,29.98,SW,215,0.0,3.0,97,0.00,,,0.23,0,weatherlink.com 1.10,2013-07-26 08:41:00,
2013-07-26 04:56:00,73.5,73.0,29.97,SW,215,0.0,2.0,97,0.00,,,0.23,0,weatherlink.com 1.10,2013-07-26 08:56:00,
2013-07-26 05:13:00,73.5,73.0,29.98,SW,217,0.0,3.0,97,0.00,,,0.23,0,weatherlink.com 1.10,2013-07-26 09:13:00,
2013-07-26 05:27:00,73.5,73.0,29.98,SW,218,0.0,1.0,97,0.00,,,0.23,0,weatherlink.com 1.10,2013-07-26 09:27:00,
2013-07-26 05:42:00,73.5,73.0,29.99,SW,218,0.0,1.0,97,0.00,,,0.23,0,weatherlink.com 1.10,2013-07-26 09:42:00,
2013-07-26 05:57:00,73.6,73.0,29.99,SW,218,0.0,1.0,97,0.00,,,0.23,0,weatherlink.com 1.10,2013-07-26 09:57:00,
2013-07-26 06:12:00,73.8,73.0,29.99,SW,218,0.0,0.0,98,0.00,,,0.23,0,weatherlink.com 1.10,2013-07-26 10:12:00,
2013-07-26 06:27:00,73.9,73.0,30.00,SW,218,0.0,1.0,98,0.00,,,0.23,0,weatherlink.com 1.10,2013-07-26 10:27:00,
2013-07-26 07:43:00,74.9,74.0,30.02,SW,222,0.0,2.0,98,0.00,,,0.23,14,weatherlink.com 1.10,2013-07-26 11:43:00,
2013-07-26 07:59:00,75.1,75.0,30.02,SW,222,1.0,2.0,98,0.00,,,0.23,9,weatherlink.com 1.10,2013-07-26 11:59:00,
2013-07-26 08:15:00,75.1,75.0,30.02,SW,222,1.0,2.0,98,0.00,,,0.23,62,weatherlink.com 1.10,2013-07-26 12:15:00,
2013-07-26 08:29:00,75.5,75.0,30.01,SW,222,0.0,3.0,98,0.00,,,0.23,37,weatherlink.com 1.10,2013-07-26 12:29:00,
2013-07-26 08:44:00,75.8,75.0,30.02,NNE,28,2.0,5.0,98,0.00,,,0.23,200,weatherlink.com 1.10,2013-07-26 12:44:00,
2013-07-26 08:59:00,76.9,76.0,30.01,NNE,32,3.0,5.0,98,0.00,,,0.23,146,weatherlink.com 1.10,2013-07-26 12:59:00,
2013-07-26 09:15:00,77.5,76.0,30.02,North,355,4.0,8.0,96,0.00,,,0.23,139,weatherlink.com 1.10,2013-07-26 13:15:00,
2013-07-26 09:32:00,78.1,77.0,30.02,NNE,19,3.0,7.0,95,0.00,,,0.23,295,weatherlink.com 1.10,2013-07-26 13:32:00,
2013-07-26 10:33:00,84.0,78.0,30.02,NE,42,0.0,5.0,83,0.00,,,0.23,234,weatherlink.com 1.10,2013-07-26 14:33:00,
2013-07-26 10:47:00,83.1,79.0,30.02,SW,227,1.0,5.0,86,0.00,,,0.23,274,weatherlink.com 1.10,2013-07-26 14:47:00,
2013-07-26 11:02:00,84.0,79.0,30.02,North,10,0.0,4.0,85,0.00,,,0.23,330,weatherlink.com 1.10,2013-07-26 15:02:00,
2013-07-26 11:17:00,86.8,80.0,30.03,North,350,2.0,8.0,81,0.00,,,0.23,698,weatherlink.com 1.10,2013-07-26 15:17:00,
2013-07-26 11:32:00,87.2,79.0,30.03,West,281,0.0,6.0,76,0.00,,,0.23,1037,weatherlink.com 1.10,2013-07-26 15:32:00,
2013-07-26 11:49:00,87.6,78.0,30.02,NNE,19,0.0,7.0,73,0.00,,,0.23,997,weatherlink.com 1.10,2013-07-26 15:49:00,
2013-07-26 12:03:00,87.8,79.0,30.02,NNE,17,6.0,8.0,75,0.00,,,0.23,323,weatherlink.com 1.10,2013-07-26 16:03:00,
2013-07-26 12:17:00,86.3,78.0,30.02,North,10,1.0,6.0,76,0.00,,,0.23,239,weatherlink.com 1.10,2013-07-26 16:17:00,
2013-07-26 12:49:00,87.2,78.0,30.02,North,355,5.0,6.0,75,0.00,,,0.23,295,weatherlink.com 1.10,2013-07-26 16:49:00,
2013-07-26 13:03:00,87.0,79.0,30.01,NNE,21,5.0,6.0,77,0.00,,,0.23,1120,weatherlink.com 1.10,2013-07-26 17:03:00,
2013-07-26 13:18:00,88.4,80.0,30.01,NNE,16,1.0,8.0,75,0.00,,,0.23,1113,weatherlink.com 1.10,2013-07-26 17:18:00,
2013-07-26 13:33:00,88.2,78.0,30.01,NNE,17,5.0,5.0,71,0.00,,,0.23,274,weatherlink.com 1.10,2013-07-26 17:33:00,
2013-07-26 13:49:00,88.0,78.0,30.01,East,92,2.0,5.0,72,0.00,,,0.23,255,weatherlink.com 1.10,2013-07-26 17:49:00,
2013-07-26 14:04:00,87.4,78.0,30.01,East,88,0.0,6.0,74,0.00,,,0.23,1093,weatherlink.com 1.10,2013-07-26 18:04:00,
2013-07-26 14:19:00,86.8,78.0,30.01,North,5,2.0,5.0,76,0.00,,,0.23,403,weatherlink.com 1.10,2013-07-26 18:19:00,
2013-07-26 14:51:00,89.2,79.0,30.00,North,5,3.0,9.0,71,0.00,,,0.23,911,weatherlink.com 1.10,2013-07-26 18:51:00,
2013-07-26 15:05:00,90.0,80.0,29.99,NNW,333,5.0,9.0,72,0.00,,,0.23,925,weatherlink.com 1.10,2013-07-26 19:05:00,
2013-07-26 15:20:00,90.1,79.0,29.99,ESE,102,1.0,8.0,70,0.00,,,0.23,875,weatherlink.com 1.10,2013-07-26 19:20:00,
2013-07-26 15:35:00,90.2,79.0,29.98,ENE,78,2.0,8.0,69,0.00,,,0.23,821,weatherlink.com 1.10,2013-07-26 19:35:00,
2013-07-26 15:51:00,89.9,78.0,29.98,East,86,1.0,8.0,69,0.00,,,0.23,793,weatherlink.com 1.10,2013-07-26 19:51:00,
2013-07-26 16:08:00,89.7,80.0,29.98,ENE,71,2.0,9.0,72,0.00,,,0.23,747,weatherlink.com 1.10,2013-07-26 20:08:00,
2013-07-26 16:21:00,88.9,79.0,29.98,NNW,348,6.0,7.0,73,0.00,,,0.23,707,weatherlink.com 1.10,2013-07-26 20:21:00,
2013-07-26 16:37:00,89.2,79.0,29.98,NNE,21,3.0,11.0,71,0.00,,,0.23,670,weatherlink.com 1.10,2013-07-26 20:37:00,
2013-07-26 17:07:00,88.1,77.0,29.99,ESE,105,3.0,7.0,69,0.00,,,0.23,67,weatherlink.com 1.10,2013-07-26 21:07:00,
2013-07-26 17:37:00,86.9,76.0,29.99,NNE,31,3.0,8.0,70,0.00,,,0.23,54,weatherlink.com 1.10,2013-07-26 21:37:00,
2013-07-26 17:53:00,86.4,76.0,29.98,NNE,23,3.0,8.0,72,0.00,,,0.23,49,weatherlink.com 1.10,2013-07-26 21:53:00,
2013-07-26 18:53:00,82.8,75.0,29.98,East,97,0.0,3.0,78,0.00,,,0.23,35,weatherlink.com 1.10,2013-07-26 22:53:00,
2013-07-26 19:08:00,81.8,76.0,29.98,ESE,109,0.0,7.0,81,0.00,,,0.23,39,weatherlink.com 1.10,2013-07-26 23:08:00,
2013-07-26 19:23:00,81.2,75.0,29.99,ESE,110,0.0,4.0,82,0.00,,,0.23,28,weatherlink.com 1.10,2013-07-26 23:23:00,
2013-07-26 20:24:00,79.5,76.0,29.99,ESE,117,0.0,1.0,88,0.00,,,0.23,0,weatherlink.com 1.10,2013-07-27 00:24:00,
2013-07-26 20:38:00,79.2,76.0,30.01,ESE,117,0.0,0.0,89,0.00,,,0.23,0,weatherlink.com 1.10,2013-07-27 00:38:00,
2013-07-26 21:08:00,78.4,76.0,30.01,ESE,117,0.0,0.0,91,0.00,,,0.23,0,weatherlink.com 1.10,2013-07-27 01:08:00,
2013-07-26 21:23:00,78.2,75.0,30.01,ESE,117,0.0,1.0,91,0.00,,,0.23,0,weatherlink.com 1.10,2013-07-27 01:23:00,
2013-07-26 21:53:00,77.9,76.0,30.02,ESE,117,0.0,1.0,93,0.00,,,0.23,0,weatherlink.com 1.10,2013-07-27 01:53:00,
2013-07-26 22:08:00,77.7,76.0,30.02,ESE,117,0.0,1.0,93,0.00,,,0.23,0,weatherlink.com 1.10,2013-07-27 02:08:00,
2013-07-26 22:23:00,77.5,75.0,30.03,ESE,117,0.0,0.0,93,0.00,,,0.23,0,weatherlink.com 1.10,2013-07-27 02:23:00,
2013-07-26 22:38:00,77.3,75.0,30.03,ESE,117,0.0,0.0,93,0.00,,,0.23,0,weatherlink.com 1.10,2013-07-27 02:38:00,
2013-07-26 23:23:00,76.8,75.0,30.02,ESE,117,0.0,0.0,94,0.00,,,0.23,0,weatherlink.com 1.10,2013-07-27 03:23:00,
2013-07-26 23:38:00,76.7,75.0,30.02,ESE,117,0.0,0.0,95,0.00,,,0.23,0,weatherlink.com 1.10,2013-07-27 03:38:00,
2013-07-26 23:53:00,76.7,75.0,30.02,ESE,117,0.0,0.0,95,0.00,,,0.23,0,weatherlink.com 1.10,2013-07-27 03:53:00,